Location: Unspecified
(0.0000°N, 0.0000°E)
Time: 10:55:32
(UTC+00:00)

Courier 1B Rocket - All Passes

Search period start: 30 January 2015 00:00
Search period end: 09 February 2015 00:00
Orbit: 921 x 1202 km, 28.2° (Epoch: 29 January)

Date Brightness Start Highest point End Pass type
(mag) Time Alt. Az. Time Alt. Az. Time Alt. Az.
30 Jan - 04:31:55 10° SSW 04:36:08 19° SSE 04:40:25 10° ESE visible
30 Jan - 06:23:39 10° SW 06:29:53 69° SSE 06:36:08 10° ENE daylight
30 Jan - 08:17:55 10° W 08:23:23 31° NNW 08:28:57 10° NNE daylight
30 Jan - 15:59:46 10° NNW 16:04:56 20° NNE 16:10:24 10° ENE daylight
30 Jan - 17:51:37 10° NW 17:59:15 61° NNE 18:06:58 10° ESE daylight
30 Jan - 19:45:49 10° W 19:53:14 44° SSW 20:00:27 10° SE visible
30 Jan - 21:43:40 10° SW 21:47:46 15° SSW 21:51:31 10° S visible
31 Jan - 03:32:12 10° S 03:34:49 13° SSE 03:37:35 10° SE visible
31 Jan - 05:22:57 10° SW 05:28:56 44° SSE 05:34:50 10° E visible
31 Jan - 07:16:22 10° WSW 07:22:21 47° NNW 07:28:23 10° NE daylight
31 Jan - 09:13:20 10° NW 09:16:23 13° NNW 09:19:17 10° N daylight
31 Jan - 15:00:02 10° N 15:03:21 14° NNE 15:07:01 10° NE daylight
31 Jan - 16:50:50 10° NW 16:57:55 42° NNE 17:05:15 10° E daylight
31 Jan - 18:44:09 10° WNW 18:51:54 65° SSW 18:59:37 10° SE visible
31 Jan - 20:40:28 10° WSW 20:46:12 21° SSW 20:51:38 10° SSE visible
01 Feb - 04:22:24 10° SSW 04:27:52 29° SSE 04:33:15 10° E visible
01 Feb - 06:15:07 10° WSW 06:21:24 74° NNW 06:27:39 10° NE daylight
01 Feb - 08:10:38 10° WNW 08:15:06 20° NNW 08:19:29 10° NNE daylight
01 Feb - 15:50:20 10° NNW 15:56:32 29° NNE 16:03:06 10° E daylight
01 Feb - 17:42:52 10° WNW 17:50:36 88° NNE 17:58:29 10° ESE daylight
01 Feb - 19:37:58 10° W 19:44:42 30° SSW 19:51:17 10° SSE visible
01 Feb - 21:38:44 10° SSW 21:39:40 10° SSW 21:40:19 10° SSW visible
02 Feb - 03:22:04 10° SSW 03:26:40 20° SSE 03:31:15 10° ESE visible
02 Feb - 05:14:05 10° SW 05:20:29 71° SSE 05:26:42 10° ENE visible
02 Feb - 07:08:34 10° W 07:13:58 29° NNW 07:19:17 10° NNE daylight
02 Feb - 14:50:11 10° NNW 14:55:07 20° NNE 15:00:25 10° ENE daylight
02 Feb - 16:41:52 10° NW 16:49:18 62° NNE 16:57:03 10° ESE daylight
02 Feb - 18:35:58 10° W 18:43:17 44° SSW 18:50:38 10° SE visible
02 Feb - 20:33:42 10° SW 20:37:57 15° SSW 20:41:53 10° S visible
03 Feb - 02:22:03 10° S 02:25:18 14° SSE 02:28:40 10° SE visible
03 Feb - 04:13:15 10° SW 04:19:30 46° SSE 04:25:30 10° E visible
03 Feb - 06:06:54 10° WSW 06:12:57 46° NNW 06:18:52 10° NE daylight
03 Feb - 08:04:16 10° NW 08:06:56 13° NNW 08:09:24 10° N daylight
03 Feb - 13:50:40 10° N 13:53:37 13° NNE 13:56:54 10° NE daylight
03 Feb - 15:41:11 10° NW 15:48:01 42° NNE 15:55:17 10° E daylight
03 Feb - 17:34:23 10° WNW 17:41:56 63° SSW 17:49:42 10° SE daylight
03 Feb - 19:30:36 10° WSW 19:36:19 21° SSW 19:41:50 10° SSE visible
04 Feb - 03:12:34 10° SSW 03:18:24 31° SSE 03:24:00 10° E visible
04 Feb - 05:05:31 10° WSW 05:12:00 72° NNW 05:18:14 10° NE visible
04 Feb - 07:01:18 10° WNW 07:05:40 19° NNW 07:09:52 10° NNE daylight
04 Feb - 14:40:47 10° NNW 14:46:43 28° NNE 14:53:06 10° E daylight
04 Feb - 16:33:10 10° WNW 16:40:39 90° SW 16:48:31 10° ESE daylight
04 Feb - 18:28:10 10° W 18:34:47 30° SSW 18:41:23 10° SSE visible
04 Feb - 20:28:30 10° SSW 20:29:52 10° SSW 20:30:55 10° S visible
05 Feb - 02:12:04 10° SSW 02:17:09 22° SSE 02:22:06 10° ESE visible
05 Feb - 04:04:21 10° SW 04:11:03 74° SSE 04:17:22 10° ENE visible
05 Feb - 05:59:04 10° W 06:04:33 29° NNW 06:09:48 10° NNE daylight
05 Feb - 13:40:45 10° NNW 13:45:22 19° NNE 13:50:23 10° ENE daylight
05 Feb - 15:32:16 10° NW 15:39:25 63° NNE 15:47:03 10° ESE daylight
05 Feb - 17:26:16 10° W 17:33:22 42° SSW 17:40:40 10° SE daylight
05 Feb - 19:23:54 10° SW 19:28:05 15° SSW 19:32:02 10° S visible
06 Feb - 01:11:50 10° SSW 01:15:43 15° SSE 01:19:40 10° SE night (unlit)
06 Feb - 03:03:24 10° SW 03:10:01 49° SSE 03:16:14 10° ENE visible
06 Feb - 04:57:16 10° W 05:03:31 45° NNW 05:09:28 10° NE visible
06 Feb - 06:55:01 10° NW 06:57:29 12° NNW 06:59:43 10° N daylight
06 Feb - 12:41:28 10° N 12:43:57 12° NNE 12:46:45 10° NE daylight
06 Feb - 14:31:40 10° NW 14:38:13 42° NNE 14:45:15 10° E daylight
06 Feb - 16:24:46 10° WNW 16:32:02 61° SSW 16:39:42 10° SE daylight
06 Feb - 18:20:54 10° WSW 18:26:26 21° SSW 18:31:53 10° SSE daylight
07 Feb - 00:12:11 10° S 00:14:07 11° SSE 00:16:16 10° SE night (unlit)
07 Feb - 02:02:36 10° SW 02:08:51 33° SSE 02:14:46 10° E night (unlit)
07 Feb - 03:55:46 10° WSW 04:02:32 70° NNW 04:08:53 10° NE visible
07 Feb - 05:51:48 10° WNW 05:56:13 19° NNW 06:00:24 10° NNE visible
07 Feb - 13:31:22 10° NNW 13:37:00 28° NNE 13:43:05 10° E daylight
07 Feb - 15:23:38 10° WNW 15:30:48 88° SSW 15:38:29 10° ESE daylight
07 Feb - 17:18:33 10° W 17:24:54 29° SSW 17:31:22 10° SSE daylight
07 Feb - 19:19:01 10° SSW 19:20:02 10° SSW 19:20:47 10° S visible
08 Feb - 01:01:58 10° SSW 01:07:32 23° SSE 01:12:55 10° ESE night (unlit)
08 Feb - 02:54:29 10° SW 03:01:32 77° SSE 03:08:03 10° ENE visible
08 Feb - 04:49:25 10° W 04:55:05 29° NNW 05:00:26 10° NNE visible
08 Feb - 12:31:26 10° NNW 12:35:44 18° NNE 12:40:24 10° ENE daylight
08 Feb - 14:22:49 10° NW 14:29:38 63° NNE 14:37:01 10° ESE daylight
08 Feb - 16:16:43 10° W 16:23:30 40° SSW 16:30:36 10° SE daylight
08 Feb - 18:14:20 10° SW 18:18:14 14° SSW 18:21:58 10° S daylight
